Check out our new BloomSky Weather System.

Active alerts

Houston, TX
  Details for Houston, TX Areal Flood Advisory


Thunder radar  blitzortung!


Rain radar more information rain snow radar


Visit our other weather sites:

Template documentation
and downloads

And another site



Weather Underground History page Text

Daily Summary for February 28, 2017 Units:  Metric    English   Both
« Previous Day
Next Day »
Daily Weekly Monthly Yearly Custom
  High: Low: Average:
Temperature: -17.8 °C 22.3 °C 24.6 °C
Dew Point: -17.8 °C 20.4 °C 21.4 °C
Humidity: Humidity % 63 % 83 %
Wind Speed: 0 km/h 1.6 km/h 9.7 km/h
Wind Gust: 0 km/h - -
Wind:- - SSE
Pressure: 0 hPa 1010.7 hPa -
Precipitation: 0 mm    
Historical Graphs
 
 
Tabular Data for February 28, 2017
Time Temperature Dew Point Pressure Wind Wind Speed Wind Gust Humidity Rainfall Rate (Hourly)
-17.8 °C -17.8 °C 0 hPa Calm     Humidity % 0 mm
00:05 23.1 °C 21.7 °C 1014.1 hPa SE 6.4 km/h 17.7 km/h 92 % 0 mm
00:10 23.1 °C 21.7 °C 1014.1 hPa SE 8 km/h 16.1 km/h 92 % 0 mm
00:15 23.1 °C 21.7 °C 1014.1 hPa SSE 3.2 km/h 14.5 km/h 92 % 0 mm
00:20 23.1 °C 21.7 °C 1014.1 hPa South 9.7 km/h 14.5 km/h 92 % 0 mm
00:25 23.1 °C 21.7 °C 1014.4 hPa South 9.7 km/h 14.5 km/h 92 % 0 mm
00:30 23.1 °C 21.7 °C 1014.4 hPa SE 8 km/h 14.5 km/h 92 % 0 mm
00:35 23.1 °C 21.7 °C 1014.1 hPa SE 14.5 km/h 14.5 km/h 92 % 0 mm
00:40 23.1 °C 21.7 °C 1014.4 hPa SE 14.5 km/h 17.7 km/h 92 % 0 mm
00:45 23.2 °C 21.8 °C 1014.4 hPa SE 12.9 km/h 17.7 km/h 92 % 0 mm
00:50 23.2 °C 21.8 °C 1014.4 hPa SSE 8 km/h 19.3 km/h 92 % 0 mm
00:55 23.2 °C 21.8 °C 1014.4 hPa SSW 6.4 km/h 19.3 km/h 92 % 0 mm
01:00 23.1 °C 21.7 °C 1014.1 hPa South 4.8 km/h 19.3 km/h 92 % 0 mm
01:05 23.1 °C 21.7 °C 1014.1 hPa East 6.4 km/h 17.7 km/h 92 % 0 mm
01:10 23 °C 21.6 °C 1014.1 hPa SSE 11.3 km/h 17.7 km/h 92 % 0 mm
01:15 22.9 °C 21.7 °C 1014.1 hPa SSE 9.7 km/h 20.9 km/h 93 % 0 mm
01:20 22.9 °C 21.7 °C 1014.1 hPa SSE 6.4 km/h 20.9 km/h 93 % 0 mm
01:25 22.9 °C 21.7 °C 1014.1 hPa SSE 8 km/h 20.9 km/h 93 % 0 mm
01:30 22.9 °C 21.7 °C 1014.1 hPa South 14.5 km/h 20.9 km/h 93 % 0 mm
01:35 22.9 °C 21.7 °C 1014.1 hPa SSE 9.7 km/h 20.9 km/h 93 % 0 mm
01:40 22.9 °C 21.7 °C 1014.1 hPa SSE 4.8 km/h 19.3 km/h 93 % 0 mm
01:45 22.9 °C 21.7 °C 1014.4 hPa SSE 9.7 km/h 19.3 km/h 93 % 0 mm
01:50 22.9 °C 21.7 °C 1014.4 hPa SW 6.4 km/h 19.3 km/h 93 % 0 mm
01:56 22.9 °C 21.7 °C 1014.4 hPa SE 4.8 km/h 14.5 km/h 93 % 0 mm
02:01 22.9 °C 21.7 °C 1014.4 hPa South 9.7 km/h 14.5 km/h 93 % 0 mm
02:06 22.9 °C 21.7 °C 1014.1 hPa South 4.8 km/h 14.5 km/h 93 % 0 mm
02:11 22.9 °C 21.7 °C 1014.1 hPa SSE 4.8 km/h 12.9 km/h 93 % 0 mm
02:16 22.9 °C 21.7 °C 1014.1 hPa SE 9.7 km/h 14.5 km/h 93 % 0 mm
02:21 22.9 °C 21.7 °C 1014.1 hPa SSE 8 km/h 14.5 km/h 93 % 0 mm
02:26 22.9 °C 21.7 °C 1013.8 hPa SSE 4.8 km/h 14.5 km/h 93 % 0 mm
02:31 22.9 °C 21.7 °C 1014.1 hPa ESE 8 km/h 12.9 km/h 93 % 0 mm
02:36 22.9 °C 21.7 °C 1013.8 hPa SE 6.4 km/h 12.9 km/h 93 % 0 mm
02:41 22.9 °C 21.7 °C 1013.8 hPa South 6.4 km/h 12.9 km/h 93 % 0 mm
02:46 22.9 °C 21.7 °C 1013.8 hPa South 4.8 km/h 14.5 km/h 93 % 0 mm
02:51 22.9 °C 21.7 °C 1013.8 hPa SSW 8 km/h 14.5 km/h 93 % 0 mm
02:56 23 °C 21.8 °C 1013.8 hPa SSE 9.7 km/h 14.5 km/h 93 % 0 mm
03:01 23 °C 21.8 °C 1013.8 hPa South 1.6 km/h 12.9 km/h 93 % 0 mm
03:06 23 °C 21.8 °C 1013.8 hPa SE 3.2 km/h 12.9 km/h 93 % 0 mm
03:11 23.1 °C 21.9 °C 1013.8 hPa SSE 8 km/h 12.9 km/h 93 % 0 mm
03:16 23.1 °C 21.9 °C 1013.8 hPa SE 3.2 km/h 12.9 km/h 93 % 0 mm
03:21 23.1 °C 21.9 °C 1013.8 hPa SSE 6.4 km/h 11.3 km/h 93 % 0 mm
03:26 23.1 °C 21.9 °C 1013.8 hPa SSW 4.8 km/h 11.3 km/h 93 % 0 mm
03:31 23.1 °C 21.9 °C 1013.8 hPa SSE 6.4 km/h 12.9 km/h 93 % 0 mm
03:36 23.1 °C 21.9 °C 1013.8 hPa SSE 6.4 km/h 12.9 km/h 93 % 0 mm
03:41 23.1 °C 22.1 °C 1013.8 hPa South 12.9 km/h 12.9 km/h 94 % 0 mm
03:46 23.1 °C 22.1 °C 1013.8 hPa SSE 3.2 km/h 14.5 km/h 94 % 0 mm
03:51 23 °C 22 °C 1013.8 hPa ESE 3.2 km/h 14.5 km/h 94 % 0 mm
03:56 23 °C 22 °C 1014.1 hPa SSE 4.8 km/h 14.5 km/h 94 % 0 mm
04:01 23 °C 22 °C 1014.1 hPa SE 4.8 km/h 9.7 km/h 94 % 0 mm
04:06 22.9 °C 21.9 °C 1014.1 hPa SE 3.2 km/h 9.7 km/h 94 % 0 mm
04:11 22.9 °C 21.9 °C 1014.1 hPa South 3.2 km/h 9.7 km/h 94 % 0 mm
04:16 22.9 °C 22.1 °C 1013.8 hPa SE 4.8 km/h 9.7 km/h 95 % 0 mm
04:21 22.8 °C 22 °C 1013.8 hPa SE 6.4 km/h 11.3 km/h 95 % 0 mm
04:26 22.8 °C 22 °C 1013.8 hPa SE 6.4 km/h 11.3 km/h 95 % 0 mm
04:31 22.8 °C 22 °C 1014.1 hPa SE 4.8 km/h 11.3 km/h 95 % 0 mm
04:37 22.8 °C 22 °C 1013.8 hPa SE 3.2 km/h 9.7 km/h 95 % 0 mm
04:42 22.8 °C 22 °C 1013.8 hPa SSE 4.8 km/h 9.7 km/h 95 % 0 mm
04:47 22.8 °C 22 °C 1013.8 hPa SE 11.3 km/h 11.3 km/h 95 % 0 mm
04:52 22.8 °C 22 °C 1013.8 hPa South 9.7 km/h 11.3 km/h 95 % 0 mm
04:57 22.8 °C 22 °C 1013.8 hPa SE 6.4 km/h 12.9 km/h 95 % 0 mm
05:02 22.8 °C 22 °C 1013.8 hPa SSE 6.4 km/h 12.9 km/h 95 % 0 mm
05:07 22.8 °C 22 °C 1013.8 hPa SE 6.4 km/h 17.7 km/h 95 % 0 mm
05:12 22.8 °C 22 °C 1013.4 hPa SE 9.7 km/h 17.7 km/h 95 % 0 mm
05:17 22.8 °C 22 °C 1013.8 hPa ESE 4.8 km/h 17.7 km/h 95 % 0 mm
05:22 22.7 °C 21.9 °C 1013.4 hPa SSE 4.8 km/h 14.5 km/h 95 % 0 mm
05:27 22.7 °C 21.9 °C 1013.8 hPa SE 6.4 km/h 14.5 km/h 95 % 0 mm
05:32 22.7 °C 21.9 °C 1013.8 hPa ESE 8 km/h 12.9 km/h 95 % 0 mm
05:37 22.7 °C 21.9 °C 1013.8 hPa SE 4.8 km/h 12.9 km/h 95 % 0 mm
05:42 22.8 °C 22 °C 1013.8 hPa ESE 4.8 km/h 14.5 km/h 95 % 0 mm
05:47 22.8 °C 22 °C 1013.8 hPa SSW 6.4 km/h 14.5 km/h 95 % 0 mm
05:52 22.7 °C 21.9 °C 1014.1 hPa SE 4.8 km/h 14.5 km/h 95 % 0 mm
05:58 22.7 °C 21.9 °C 1014.1 hPa SSE 3.2 km/h 14.5 km/h 95 % 0 mm
06:03 22.7 °C 21.9 °C 1014.1 hPa SE 3.2 km/h 14.5 km/h 95 % 0 mm
06:08 22.7 °C 21.9 °C 1014.1 hPa SSE 3.2 km/h 12.9 km/h 95 % 0 mm
06:13 22.7 °C 21.9 °C 1014.4 hPa SE 9.7 km/h 12.9 km/h 95 % 0 mm
06:18 22.7 °C 21.9 °C 1014.4 hPa SSW 4.8 km/h 12.9 km/h 95 % 0 mm
06:23 22.6 °C 21.6 °C 1014.4 hPa SE 4.8 km/h 12.9 km/h 94 % 0 mm
06:28 22.6 °C 21.6 °C 1014.4 hPa ESE 8 km/h 12.9 km/h 94 % 0 mm
06:33 22.5 °C 21.5 °C 1014.4 hPa ESE 3.2 km/h 14.5 km/h 94 % 0 mm
06:38 22.5 °C 21.5 °C 1014.8 hPa SE 8 km/h 14.5 km/h 94 % 0 mm
06:43 22.4 °C 21.4 °C 1014.8 hPa South 1.6 km/h 14.5 km/h 94 % 0 mm
06:48 22.4 °C 21.4 °C 1014.8 hPa SSE 6.4 km/h 12.9 km/h 94 % 0 mm
06:53 22.3 °C 21.3 °C 1014.8 hPa SE 8 km/h 12.9 km/h 94 % 0 mm
06:58 22.3 °C 21.3 °C 1014.8 hPa SE 8 km/h 9.7 km/h 94 % 0 mm
07:03 22.3 °C 21.3 °C 1014.8 hPa SSE 3.2 km/h 12.9 km/h 94 % 0 mm
07:08 22.3 °C 21.3 °C 1014.8 hPa SE 4.8 km/h 12.9 km/h 94 % 0 mm
07:13 22.3 °C 21.3 °C 1014.8 hPa South 3.2 km/h 12.9 km/h 94 % 0 mm
07:18 22.3 °C 21.3 °C 1014.4 hPa SE 9.7 km/h 12.9 km/h 94 % 0 mm
07:23 22.3 °C 21.3 °C 1014.4 hPa SE 9.7 km/h 12.9 km/h 94 % 0 mm
07:28 22.3 °C 21.3 °C 1014.8 hPa SSE 8 km/h 12.9 km/h 94 % 0 mm
07:33 22.3 °C 21.3 °C 1014.8 hPa SSE 8 km/h 12.9 km/h 94 % 0 mm
07:38 22.4 °C 21.4 °C 1014.8 hPa SSE 4.8 km/h 12.9 km/h 94 % 0 mm
07:43 22.6 °C 21.4 °C 1014.8 hPa SSE 8 km/h 14.5 km/h 93 % 0 mm
07:49 22.7 °C 21.5 °C 1014.8 hPa SSE 6.4 km/h 14.5 km/h 93 % 0 mm
07:54 22.8 °C 21.6 °C 1014.8 hPa SSE 8 km/h 14.5 km/h 93 % 0 mm
07:59 22.9 °C 21.5 °C 1015.1 hPa SW 4.8 km/h 14.5 km/h 92 % 0 mm
08:04 22.9 °C 21.4 °C 1015.1 hPa SE 8 km/h 14.5 km/h 91 % 0 mm
08:09 23 °C 21.4 °C 1015.1 hPa SE 11.3 km/h 14.5 km/h 91 % 0 mm
08:14 23 °C 21.4 °C 1015.1 hPa SE 12.9 km/h 14.5 km/h 91 % 0 mm
08:19 23 °C 21.4 °C 1015.1 hPa ESE 9.7 km/h 16.1 km/h 91 % 0 mm
08:24 23.2 °C 21.6 °C 1015.5 hPa SE 3.2 km/h 16.1 km/h 91 % 0 mm
08:29 23.3 °C 21.6 °C 1015.5 hPa South 6.4 km/h 16.1 km/h 90 % 0 mm
08:34 23.2 °C 21.5 °C 1015.1 hPa SE 9.7 km/h 14.5 km/h 90 % 0 mm
08:39 23.2 °C 21.3 °C 1015.5 hPa East 8 km/h 16.1 km/h 89 % 0 mm
08:44 23.3 °C 21.4 °C 1015.1 hPa SSE 8 km/h 16.1 km/h 89 % 0 mm
08:49 23.3 °C 21.2 °C 1015.5 hPa SE 12.9 km/h 16.1 km/h 88 % 0 mm
08:51 23.3 °C 21.2 °C 1015.5 hPa SSW 14.5 km/h 17.7 km/h 88 % 0 mm
08:56 23.3 °C 21 °C 1015.5 hPa South 12.9 km/h 22.5 km/h 87 % 0 mm
09:01 23.5 °C 21.2 °C 1015.5 hPa SE 9.7 km/h 22.5 km/h 87 % 0 mm
09:06 23.6 °C 21.3 °C 1015.5 hPa SSE 9.7 km/h 22.5 km/h 87 % 0 mm
09:12 23.9 °C 21.4 °C 1015.5 hPa South 6.4 km/h 20.9 km/h 86 % 0 mm
09:17 23.9 °C 21.2 °C 1015.5 hPa SE 12.9 km/h 20.9 km/h 85 % 0 mm
09:22 24 °C 21.3 °C 1015.8 hPa SE 12.9 km/h 25.7 km/h 85 % 0 mm
09:27 24.1 °C 21.2 °C 1015.8 hPa SSE 12.9 km/h 25.7 km/h 84 % 0 mm
09:32 24.1 °C 21.2 °C 1015.8 hPa SE 16.1 km/h 25.7 km/h 84 % 0 mm
09:37 24.1 °C 21.2 °C 1015.8 hPa SSW 14.5 km/h 25.7 km/h 84 % 0 mm
09:42 24.3 °C 21 °C 1015.8 hPa SE 20.9 km/h 25.7 km/h 82 % 0 mm
09:47 24.3 °C 20.8 °C 1015.5 hPa South 12.9 km/h 25.7 km/h 81 % 0 mm
09:52 24.4 °C 21.1 °C 1015.5 hPa SSE 14.5 km/h 27.4 km/h 82 % 0 mm
09:57 24.7 °C 21.2 °C 1015.5 hPa East 16.1 km/h 27.4 km/h 81 % 0 mm
10:02 24.7 °C 21.2 °C 1015.5 hPa SE 6.4 km/h 27.4 km/h 81 % 0 mm
10:07 24.7 °C 21.2 °C 1015.8 hPa SSW 11.3 km/h 24.1 km/h 81 % 0 mm
10:12 24.9 °C 21.4 °C 1015.8 hPa East 6.4 km/h 24.1 km/h 81 % 0 mm
10:17 25.1 °C 21.4 °C 1015.8 hPa South 9.7 km/h 25.7 km/h 80 % 0 mm
10:22 25.2 °C 21.3 °C 1015.8 hPa South 12.9 km/h 25.7 km/h 79 % 0 mm
10:27 25.4 °C 20.9 °C 1015.8 hPa ESE 19.3 km/h 25.7 km/h 76 % 0 mm
10:32 25.7 °C 21.4 °C 1015.8 hPa South 14.5 km/h 25.7 km/h 77 % 0 mm
10:37 25.9 °C 21.1 °C 1015.8 hPa ESE 9.7 km/h 25.7 km/h 75 % 0 mm
10:42 26.1 °C 21.1 °C 1015.8 hPa South 16.1 km/h 25.7 km/h 74 % 0 mm
10:47 26.1 °C 20.9 °C 1015.8 hPa South 6.4 km/h 24.1 km/h 73 % 0 mm
10:52 26.1 °C 21.1 °C 1015.5 hPa SE 11.3 km/h 25.7 km/h 74 % 0 mm
10:57 25.9 °C 21.1 °C 1015.5 hPa ESE 14.5 km/h 25.7 km/h 75 % 0 mm
11:02 26.1 °C 21.3 °C 1015.5 hPa SSE 19.3 km/h 25.7 km/h 75 % 0 mm
11:07 26.2 °C 21.4 °C 1015.5 hPa SW 19.3 km/h 25.7 km/h 75 % 0 mm
11:12 26.1 °C 21.1 °C 1015.5 hPa SE 14.5 km/h 25.7 km/h 74 % 0 mm
11:17 25.9 °C 21.3 °C 1015.5 hPa SE 11.3 km/h 25.7 km/h 76 % 0 mm
11:22 25.9 °C 21.3 °C 1015.1 hPa SSE 9.7 km/h 25.7 km/h 76 % 0 mm
11:27 25.9 °C 21.6 °C 1015.1 hPa South 14.5 km/h 27.4 km/h 77 % 0 mm
11:32 26.1 °C 21.7 °C 1015.1 hPa SE 16.1 km/h 27.4 km/h 77 % 0 mm
11:37 26.3 °C 21.9 °C 1015.1 hPa SE 17.7 km/h 27.4 km/h 77 % 0 mm
11:42 26.6 °C 22 °C 1014.8 hPa ESE 17.7 km/h 24.1 km/h 76 % 0 mm
11:47 26.7 °C 21.9 °C 1014.4 hPa SSE 17.7 km/h 29 km/h 75 % 0 mm
11:52 26.8 °C 22 °C 1014.4 hPa SSE 17.7 km/h 29 km/h 75 % 0 mm
11:57 26.6 °C 21.8 °C 1014.1 hPa SE 9.7 km/h 29 km/h 75 % 0 mm
12:02 26.7 °C 21.9 °C 1014.1 hPa South 11.3 km/h 27.4 km/h 75 % 0 mm
12:07 26.8 °C 21.8 °C 1014.1 hPa SE 16.1 km/h 27.4 km/h 74 % 0 mm
12:12 26.8 °C 21.6 °C 1014.1 hPa South 14.5 km/h 27.4 km/h 73 % 0 mm
12:17 26.8 °C 21.3 °C 1014.1 hPa SE 16.1 km/h 27.4 km/h 72 % 0 mm
12:22 26.9 °C 21.6 °C 1013.8 hPa East 14.5 km/h 27.4 km/h 73 % 0 mm
12:27 27.1 °C 21.4 °C 1013.8 hPa SE 14.5 km/h 27.4 km/h 71 % 0 mm
12:32 27.1 °C 21.2 °C 1013.8 hPa SE 11.3 km/h 27.4 km/h 70 % 0 mm
12:37 27.2 °C 21.5 °C 1013.8 hPa ENE 17.7 km/h 24.1 km/h 71 % 0 mm
12:42 27.3 °C 21.1 °C 1013.4 hPa SE 19.3 km/h 27.4 km/h 69 % 0 mm
12:47 27.3 °C 20.9 °C 1013.4 hPa SE 20.9 km/h 27.4 km/h 68 % 0 mm
12:52 27.4 °C 21.4 °C 1013.4 hPa SE 14.5 km/h 27.4 km/h 70 % 0 mm
12:57 27.6 °C 21.4 °C 1013.1 hPa SE 11.3 km/h 27.4 km/h 69 % 0 mm
13:02 27.6 °C 21.2 °C 1013.1 hPa SE 16.1 km/h 27.4 km/h 68 % 0 mm
13:07 27.6 °C 21.2 °C 1013.1 hPa South 12.9 km/h 25.7 km/h 68 % 0 mm
13:12 27.6 °C 21.4 °C 1013.1 hPa SE 6.4 km/h 29 km/h 69 % 0 mm
13:17 27.9 °C 21.2 °C 1013.1 hPa SE 17.7 km/h 29 km/h 67 % 0 mm
13:22 28.2 °C 21.2 °C 1012.8 hPa South 9.7 km/h 29 km/h 66 % 0 mm
13:27 28 °C 21.1 °C 1012.8 hPa SSW 12.9 km/h 29 km/h 66 % 0 mm
13:32 27.9 °C 21 °C 1012.8 hPa SSE 14.5 km/h 29 km/h 66 % 0 mm
13:37 28 °C 21.1 °C 1012.8 hPa SE 12.9 km/h 29 km/h 66 % 0 mm
13:42 28.1 °C 20.9 °C 1012.1 hPa SE 12.9 km/h 25.7 km/h 65 % 0 mm
13:47 27.9 °C 20.5 °C 1012.4 hPa South 12.9 km/h 32.2 km/h 64 % 0 mm
13:52 27.9 °C 20.7 °C 1012.4 hPa SSE 14.5 km/h 32.2 km/h 65 % 0 mm
13:57 28 °C 21.1 °C 1012.4 hPa SE 11.3 km/h 32.2 km/h 66 % 0 mm
14:02 28 °C 21.1 °C 1012.4 hPa SSW 16.1 km/h 25.7 km/h 66 % 0 mm
14:07 28.1 °C 20.6 °C 1012.1 hPa SSE 17.7 km/h 25.7 km/h 64 % 0 mm
14:12 27.9 °C 20.5 °C 1012.1 hPa ESE 12.9 km/h 32.2 km/h 64 % 0 mm
14:13 27.9 °C 20.5 °C 1012.1 hPa South 9.7 km/h 32.2 km/h 64 % 0 mm
14:18 27.8 °C 20.6 °C 1012.1 hPa SSE 17.7 km/h 32.2 km/h 65 % 0 mm
14:23 28 °C 20.6 °C 1011.7 hPa SSE 12.9 km/h 37 km/h 64 % 0 mm
14:28 28.1 °C 20.4 °C 1011.7 hPa SSE 16.1 km/h 37 km/h 63 % 0 mm
14:33 27.9 °C 20.7 °C 1012.1 hPa SSW 12.9 km/h 37 km/h 65 % 0 mm
14:38 27.9 °C 20.5 °C 1012.1 hPa SE 12.9 km/h 30.6 km/h 64 % 0 mm
14:43 27.8 °C 20.6 °C 1012.1 hPa SSE 14.5 km/h 30.6 km/h 65 % 0 mm
14:48 27.8 °C 20.6 °C 1011.7 hPa SE 8 km/h 30.6 km/h 65 % 0 mm
14:53 27.9 °C 20.7 °C 1011.7 hPa South 14.5 km/h 30.6 km/h 65 % 0 mm
14:58 27.8 °C 20.6 °C 1011.4 hPa South 17.7 km/h 29 km/h 65 % 0 mm
15:03 27.6 °C 20.9 °C 1011.1 hPa SSE 12.9 km/h 29 km/h 67 % 0 mm
15:08 27.5 °C 20.8 °C 1011.1 hPa SE 20.9 km/h 33.8 km/h 67 % 0 mm
15:13 27.5 °C 20.8 °C 1011.1 hPa South 20.9 km/h 33.8 km/h 67 % 0 mm
15:18 27.4 °C 21 °C 1011.1 hPa SSE 11.3 km/h 33.8 km/h 68 % 0 mm
15:23 27.4 °C 20.7 °C 1011.4 hPa WSW 14.5 km/h 32.2 km/h 67 % 0 mm
15:28 27.4 °C 21 °C 1011.4 hPa SSW 17.7 km/h 32.2 km/h 68 % 0 mm
15:33 27.3 °C 20.9 °C 1011.1 hPa SSW 17.7 km/h 29 km/h 68 % 0 mm
15:38 27.3 °C 21.1 °C 1011.4 hPa SE 17.7 km/h 29 km/h 69 % 0 mm
15:43 27.6 °C 21.4 °C 1011.1 hPa SE 19.3 km/h 29 km/h 69 % 0 mm
15:48 27.7 °C 21.5 °C 1011.1 hPa SSE 12.9 km/h 27.4 km/h 69 % 0 mm
15:53 27.6 °C 21.4 °C 1011.1 hPa South 19.3 km/h 22.5 km/h 69 % 0 mm
15:58 27.3 °C 21.1 °C 1011.1 hPa South 22.5 km/h 24.1 km/h 69 % 0 mm
16:03 27.2 °C 21.2 °C 1011.1 hPa SSE 11.3 km/h 30.6 km/h 70 % 0 mm
16:08 27.1 °C 21.4 °C 1011.1 hPa SE 12.9 km/h 30.6 km/h 71 % 0 mm
16:13 27.1 °C 21.2 °C 1011.1 hPa SE 14.5 km/h 30.6 km/h 70 % 0 mm
16:18 27.1 °C 21.4 °C 1011.1 hPa SSE 11.3 km/h 25.7 km/h 71 % 0 mm
16:23 27.2 °C 21.2 °C 1011.1 hPa SSE 9.7 km/h 25.7 km/h 70 % 0 mm
16:28 27.1 °C 21.2 °C 1011.1 hPa SE 17.7 km/h 25.7 km/h 70 % 0 mm
16:33 26.9 °C 21 °C 1011.1 hPa SE 11.3 km/h 24.1 km/h 70 % 0 mm
16:38 26.8 °C 21.1 °C 1011.1 hPa South 11.3 km/h 24.1 km/h 71 % 0 mm
16:43 26.8 °C 21.3 °C 1011.1 hPa South 11.3 km/h 25.7 km/h 72 % 0 mm
16:48 26.7 °C 21 °C 1011.1 hPa South 11.3 km/h 25.7 km/h 71 % 0 mm
16:54 26.7 °C 21.2 °C 1011.1 hPa SSE 14.5 km/h 25.7 km/h 72 % 0 mm
16:59 26.7 °C 21.2 °C 1011.1 hPa South 8 km/h 20.9 km/h 72 % 0 mm
17:04 26.7 °C 21.5 °C 1011.1 hPa SE 6.4 km/h 22.5 km/h 73 % 0 mm
17:09 26.7 °C 21.5 °C 1011.1 hPa South 9.7 km/h 22.5 km/h 73 % 0 mm
17:14 26.7 °C 21.7 °C 1011.1 hPa SE 8 km/h 22.5 km/h 74 % 0 mm
17:19 26.6 °C 21.6 °C 1011.1 hPa SSE 12.9 km/h 22.5 km/h 74 % 0 mm
17:24 26.5 °C 21.5 °C 1011.1 hPa SE 9.7 km/h 22.5 km/h 74 % 0 mm
17:29 26.4 °C 21.4 °C 1011.4 hPa SSW 6.4 km/h 22.5 km/h 74 % 0 mm
17:34 26.4 °C 21.4 °C 1011.4 hPa SSE 6.4 km/h 17.7 km/h 74 % 0 mm
17:39 26.3 °C 21.5 °C 1011.1 hPa SSE 11.3 km/h 17.7 km/h 75 % 0 mm
17:44 26.3 °C 21.5 °C 1011.1 hPa South 8 km/h 17.7 km/h 75 % 0 mm
17:49 26.2 °C 21.4 °C 1011.1 hPa SSE 12.9 km/h 17.7 km/h 75 % 0 mm
17:54 26.2 °C 21.4 °C 1011.1 hPa SSW 9.7 km/h 17.7 km/h 75 % 0 mm
17:59 26.1 °C 21.3 °C 1011.1 hPa South 9.7 km/h 17.7 km/h 75 % 0 mm
18:04 25.9 °C 21.3 °C 1011.1 hPa SSW 3.2 km/h 16.1 km/h 76 % 0 mm
18:09 25.8 °C 21.5 °C 1011.1 hPa SE 8 km/h 16.1 km/h 77 % 0 mm
18:14 25.7 °C 21.6 °C 1011.1 hPa SE 4.8 km/h 16.1 km/h 78 % 0 mm
18:19 25.6 °C 21.5 °C 1011.4 hPa SSE 6.4 km/h 11.3 km/h 78 % 0 mm
18:24 25.6 °C 21.7 °C 1011.1 hPa SSW 8 km/h 11.3 km/h 79 % 0 mm
18:29 25.5 °C 21.6 °C 1011.4 hPa SSW 6.4 km/h 11.3 km/h 79 % 0 mm
18:34 25.4 °C 21.3 °C 1011.4 hPa SSW 9.7 km/h 14.5 km/h 78 % 0 mm
18:40 25.3 °C 21.2 °C 1011.1 hPa SSE 6.4 km/h 16.1 km/h 78 % 0 mm
18:45 25.3 °C 21.2 °C 1011.1 hPa SSE 14.5 km/h 19.3 km/h 78 % 0 mm
18:50 25.3 °C 21.2 °C 1011.1 hPa WSW 9.7 km/h 19.3 km/h 78 % 0 mm
18:55 25.3 °C 21.2 °C 1011.1 hPa SSE 12.9 km/h 19.3 km/h 78 % 0 mm
19:00 25.3 °C 21.2 °C 1010.7 hPa South 16.1 km/h 20.9 km/h 78 % 0 mm
19:05 25.3 °C 21.4 °C 1010.7 hPa South 11.3 km/h 20.9 km/h 79 % 0 mm
19:10 25.2 °C 21.5 °C 1011.1 hPa SSE 6.4 km/h 17.7 km/h 80 % 0 mm
19:15 25.1 °C 21.4 °C 1011.1 hPa WSW 4.8 km/h 16.1 km/h 80 % 0 mm
19:20 25.1 °C 21.6 °C 1010.7 hPa SSW 8 km/h 12.9 km/h 81 % 0 mm
19:25 25 °C 21.5 °C 1010.7 hPa South 3.2 km/h 12.9 km/h 81 % 0 mm
19:30 24.9 °C 21.6 °C 1010.7 hPa South 8 km/h 14.5 km/h 82 % 0 mm
19:35 24.9 °C 21.6 °C 1010.7 hPa South 16.1 km/h 19.3 km/h 82 % 0 mm
19:40 24.9 °C 21.6 °C 1011.1 hPa SSE 1.6 km/h 19.3 km/h 82 % 0 mm
19:45 24.8 °C 21.5 °C 1011.1 hPa SSW 6.4 km/h 19.3 km/h 82 % 0 mm
19:50 24.8 °C 21.7 °C 1011.1 hPa SE 9.7 km/h 19.3 km/h 83 % 0 mm
19:55 24.8 °C 21.7 °C 1011.1 hPa SSE 6.4 km/h 24.1 km/h 83 % 0 mm
20:00 24.7 °C 21.6 °C 1011.1 hPa South 12.9 km/h 24.1 km/h 83 % 0 mm
20:05 24.7 °C 21.6 °C 1011.1 hPa South 6.4 km/h 24.1 km/h 83 % 0 mm
20:10 24.6 °C 21.7 °C 1011.1 hPa South 3.2 km/h 22.5 km/h 84 % 0 mm
20:15 24.6 °C 21.7 °C 1011.1 hPa South 6.4 km/h 16.1 km/h 84 % 0 mm
20:20 24.6 °C 21.9 °C 1011.4 hPa South 4.8 km/h 14.5 km/h 85 % 0 mm
20:25 24.6 °C 21.9 °C 1011.4 hPa SSE 6.4 km/h 20.9 km/h 85 % 0 mm
20:31 24.4 °C 21.7 °C 1011.7 hPa SSE 11.3 km/h 20.9 km/h 85 % 0 mm
20:36 24.4 °C 21.9 °C 1011.7 hPa SSE 4.8 km/h 20.9 km/h 86 % 0 mm
20:41 24.4 °C 21.9 °C 1011.7 hPa SSE 4.8 km/h 20.9 km/h 86 % 0 mm
20:46 24.4 °C 21.9 °C 1011.7 hPa SE 9.7 km/h 20.9 km/h 86 % 0 mm
20:51 24.4 °C 21.9 °C 1011.7 hPa South 4.8 km/h 20.9 km/h 86 % 0 mm
20:56 24.3 °C 21.8 °C 1012.1 hPa South 4.8 km/h 17.7 km/h 86 % 0 mm
21:01 24.3 °C 21.8 °C 1012.1 hPa SW 3.2 km/h 17.7 km/h 86 % 0 mm
21:06 24.3 °C 22 °C 1012.1 hPa South 9.7 km/h 17.7 km/h 87 % 0 mm
21:11 24.3 °C 22 °C 1012.1 hPa South 12.9 km/h 16.1 km/h 87 % 0 mm
21:16 24.2 °C 21.9 °C 1012.1 hPa SSW 8 km/h 17.7 km/h 87 % 0 mm
21:21 24.2 °C 21.9 °C 1012.4 hPa South 4.8 km/h 19.3 km/h 87 % 0 mm
21:26 24.2 °C 21.9 °C 1012.4 hPa South 11.3 km/h 19.3 km/h 87 % 0 mm
21:31 24.1 °C 21.8 °C 1012.4 hPa South 8 km/h 19.3 km/h 87 % 0 mm
21:36 24.1 °C 21.8 °C 1012.4 hPa South 4.8 km/h 17.7 km/h 87 % 0 mm
21:41 24.1 °C 21.8 °C 1012.1 hPa SSE 8 km/h 16.1 km/h 87 % 0 mm
21:46 24.1 °C 21.8 °C 1012.4 hPa SE 8 km/h 17.7 km/h 87 % 0 mm
21:51 24.1 °C 22 °C 1012.4 hPa ESE 9.7 km/h 17.7 km/h 88 % 0 mm
21:56 24.1 °C 21.8 °C 1012.4 hPa South 4.8 km/h 17.7 km/h 87 % 0 mm
22:01 24 °C 21.9 °C 1012.4 hPa SSE 6.4 km/h 16.1 km/h 88 % 0 mm
22:06 23.9 °C 21.8 °C 1012.4 hPa SSE 6.4 km/h 14.5 km/h 88 % 0 mm
22:11 23.9 °C 21.8 °C 1012.4 hPa SSE 8 km/h 12.9 km/h 88 % 0 mm
22:16 23.9 °C 21.8 °C 1012.8 hPa SSE 4.8 km/h 12.9 km/h 88 % 0 mm
22:22 23.8 °C 21.7 °C 1012.8 hPa SSE 8 km/h 12.9 km/h 88 % 0 mm
22:27 23.8 °C 21.7 °C 1012.4 hPa South 6.4 km/h 12.9 km/h 88 % 0 mm
22:32 23.8 °C 21.7 °C 1012.4 hPa SSW 6.4 km/h 12.9 km/h 88 % 0 mm
22:37 23.8 °C 21.7 °C 1012.1 hPa SE 11.3 km/h 12.9 km/h 88 % 0 mm
22:42 23.8 °C 21.9 °C 1012.1 hPa SSE 11.3 km/h 16.1 km/h 89 % 0 mm
22:47 23.8 °C 21.9 °C 1011.7 hPa South 6.4 km/h 16.1 km/h 89 % 0 mm
22:52 23.8 °C 21.9 °C 1012.1 hPa South 11.3 km/h 16.1 km/h 89 % 0 mm
22:57 23.7 °C 21.8 °C 1012.1 hPa SSE 6.4 km/h 16.1 km/h 89 % 0 mm
23:02 23.7 °C 21.8 °C 1012.1 hPa South 6.4 km/h 16.1 km/h 89 % 0 mm
23:07 23.7 °C 21.8 °C 1012.1 hPa SSW 8 km/h 12.9 km/h 89 % 0 mm
23:12 23.7 °C 21.8 °C 1012.1 hPa SSE 6.4 km/h 14.5 km/h 89 % 0 mm
23:17 23.7 °C 21.8 °C 1012.1 hPa SSE 6.4 km/h 14.5 km/h 89 % 0 mm
23:22 23.6 °C 21.7 °C 1012.1 hPa SSE 11.3 km/h 16.1 km/h 89 % 0 mm
23:27 23.6 °C 21.9 °C 1012.1 hPa SE 9.7 km/h 16.1 km/h 90 % 0 mm
23:32 23.6 °C 21.9 °C 1011.7 hPa South 6.4 km/h 16.1 km/h 90 % 0 mm
23:37 23.6 °C 21.9 °C 1011.7 hPa SSE 6.4 km/h 14.5 km/h 90 % 0 mm
23:42 23.6 °C 21.9 °C 1011.7 hPa SSE 4.8 km/h 14.5 km/h 90 % 0 mm
23:47 23.6 °C 21.9 °C 1011.7 hPa SSW 11.3 km/h 19.3 km/h 90 % 0 mm
23:52 23.6 °C 21.9 °C 1012.1 hPa South 8 km/h 19.3 km/h 90 % 0 mm
23:57 23.6 °C 21.9 °C 1012.1 hPa SE 4.8 km/h 19.3 km/h 90 % 0 mm
Spring, Texas: Villages of Bridgestone
Compliments of Weather Underground - 2.75 mb

Script developed by  Jim McMurry - jmcmurry@mwt.net Adapted for the template by  Wim van der Kuil - Leuven-Template.eu

You find our weather info also at:

UK Metoffice

WeatherCloud

Weather Underground

Mid-South Weather Network

AWEKAS

Citizen Weather Observer Program (CWOP)

HAMweather, WeatherForYou, PWS Weather

Equipment we use:

Weather-station
Davis Vantage Vue

Weather-program
Meteohub

Weather-server
Debian 7.9 x86 (Guest)

Provider
DreamHost

Davis Vantage Vue

Meteohub

Debian 7.9 x86 (Guest)

DreamHost